PulseSat

PulseSat

COSMOS 2433 (720)

Last updated on March 21, 2019, 3:13 a.m. UTC

1 32275U 07052A   19078.65082980 -.00000035  00000-0  10000-3 0  9999
2 32275  65.8164  44.1315 0004925 279.7271 351.1355  2.13104497 88699
UTC
Height (km)
Latitude
Longitude
Inclination
Orbital Period

Next 30 passes for location: Hong Kong

Rise time Rise Azimuth (degrees) Set time Set Azimuth (degrees) Duration Max altitude (degrees)

No matching passes for this satellites

PulseSat

PulseSat is the new satellites software and hardware trackering solution by Pulsely.
Satellite Two Line Element Set source: US Air Force Space Command

Download PulseSat for iOS
© 2017 Pulsely Limited